RH
57 48 36 36 39 42 44 45 53 62 84 79 71 72 68 59 53 52 43 34 38 40 43 45 46 46 43 39 39 39 52 68 91 85 87 86 87 84 81 82 81 84 84
41 36 36 38 40 44 46 49 56 63 71 80 88 80 72 61 53 46 36 43 40 40 42 45 45 45 40 39 38 34 27 38 50 71 81 84 85 89 86 81 78 80 89
32 31 29 28 28 32 43 42 51 66 80 93 80 72 68 63 56 49 39 40 44 49 51 51 51 49 45 43 44 45 41 36 46 49 52 82 78 78 86 85 80 80 82
33 31 29 26 23 26 38 48 70 72 73 70 78 77 72 63 49 45 45 46 49 52 55 58 59 60 59 60 61 60 58 53 53 51 46 52 61 62 61 75 83 86 86
34 30 27 21 20 26 36 41 47 59 62 73 85 81 68 53 50 51 49 51 53 51 53 65 72 72 73 80 83 83 83 78 72 67 55 50 48 41 42 45 62 76 84
31 30 26 22 21 24 27 34 48 59 67 88 92 78 54 47 53 51 53 51 46 51 67 73 75 75 76 84 87 94 95 90 88 83 76 64 55 48 39 37 41 55 68
33 28 23 21 23 28 33 46 56 72 82 90 75 66 47 53 51 52 50 46 47 66 75 80 77 82 85 85 92 93 93 92 90 89 79 71 62 52 46 38 37 42 50
28 24 24 24 26 32 44 55 76 86 83 75 70 54 51 49 50 50 49 43 56 72 83 84 87 90 92 93 94 91 97 96 90 80 74 69 61 51 44 39 38 42 46
27 26 26 29 31 38 52 59 64 69 73 79 64 54 51 48 50 50 44 40 62 83 88 90 95 96 97 99 98 88 91 94 95 86 79 70 57 50 48 47 42 48 47
29 27 29 32 41 47 59 66 71 76 84 76 62 49 50 51 50 46 40 42 69 82 90 93 96 98 99 98 99 96 88 93 90 84 76 65 57 52 51 48 48 51 52
27 32 36 38 45 54 62 70 76 88 92 76 56 50 49 49 48 45 43 48 73 85 91 93 95 97 98 98 98 97 90 85 80 78 72 65 57 51 49 46 47 52 51
31 35 38 43 51 60 68 79 84 87 77 61 56 50 47 49 47 46 44 51 77 87 93 95 97 98 98 99 99 99 90 88 81 79 74 71 66 62 61 62 64 67 69
32 39 46 50 55 63 72 75 64 61 60 57 52 46 49 49 48 47 46 51 78 90 96 97 97 98 98 99 99 99 95 88 86 80 78 77 77 76 76 75 76 79 83
37 50 55 55 55 58 61 58 51 57 59 54 48 46 53 49 50 48 48 50 77 92 96 96 97 94 92 95 99 99 99 95 91 89 88 88 88 88 89 89 89 89 87
49 60 63 62 59 56 56 55 54 55 55 52 46 52 54 53 53 51 51 47 67 88 95 96 95 80 79 57 70 97 99 99 98 97 96 95 95 93 91 88 85 82 77
53 65 71 72 68 58 53 52 53 53 52 50 53 56 58 59 56 54 52 49 50 69 85 94 86 80 77 72 55 64 87 91 89 87 86 85 84 83 81 79 75 73 74
59 67 75 77 73 63 57 51 48 49 52 53 56 59 62 61 58 55 53 52 48 56 71 85 89 81 79 75 69 58 60 80 88 86 85 84 81 77 74 72 72 72 69
62 69 77 78 72 62 58 51 49 52 52 55 58 63 64 61 58 57 55 56 54 48 60 71 80 82 81 75 70 66 57 50 75 86 84 81 77 74 73 71 67 67 66
64 71 77 76 66 61 59 52 54 58 60 60 62 65 62 59 58 59 61 59 58 56 53 64 72 76 75 74 73 65 60 52 51 60 83 81 79 77 75 73 71 68 66
68 74 73 65 64 65 63 59 59 61 59 62 66 62 59 56 57 60 64 64 61 60 60 57 64 76 79 77 76 72 64 56 48 52 62 70 83 80 77 75 75 73 72
71 74 67 64 65 67 66 60 59 59 56 65 65 61 57 55 57 60 62 64 64 62 60 60 61 63 76 83 81 79 75 69 58 55 51 51 52 57 59 60 63 65 65
76 76 69 64 65 63 58 58 60 57 60 66 62 59 56 53 55 58 61 62 64 64 62 61 59 59 62 74 88 88 83 80 74 65 58 57 51 48 49 48 47 47 45
87 80 69 67 71 64 57 57 58 59 63 65 62 60 56 53 54 56 58 61 63 64 63 61 59 61 60 58 64 81 89 90 88 80 72 64 58 54 50 50 48 50 48
93 86 78 75 73 67 60 58 60 60 63 62 63 62 58 52 51 52 54 59 61 61 62 62 59 60 65 68 66 69 78 88 89 90 88 80 71 65 59 56 53 51 50
91 87 83 82 83 82 75 64 63 63 63 63 63 63 60 53 50 51 52 56 59 61 61 61 62 62 62 69 76 78 82 84 89 90 90 88 83 79 71 66 62 59 56
89 89 88 89 93 94 88 79 68 65 65 65 65 66 66 63 56 52 53 55 59 61 63 64 61 62 64 68 76 82 84 87 92 97 98 97 92 86 80 78 74 71 68